Terminal Aerodrome Forecast
Issued by NWS

Home | Current Version | Previous Version | Graphics & Text | Print | Product List | Glossary On
Versions: 1 2 3 4 5 6 7 8 9 10 11 12 13 14 15 16 17 18 19 20 21 22
000
FTUS43 KICT 282330
TAFHUT
TAF
KHUT 282330Z 2900/2924 19016G23KT P6SM FEW070
     FM290100 18011KT P6SM VCTS BKN070CB
     FM290900 04011KT P6SM VCSH BKN070=

USA.gov is the U.S. government's official web portal to all federal, state and local government web resources and services.